This is the latest recevied weather packets stored in our database for station/object K7TSD. If no packets are shown the sender has not sent any weather packets the latest 10 day(s).
| Time | Temp. | Humidity | Pressure | Rain* | Wind** | Luminosity | Snow |
|---|---|---|---|---|---|---|---|
| 1777794270 | 7.78° C | 69% | 1014.9 hPa | 0 mm | - | 0 W/m² | - |
| 1777793966 | 7.78° C | 68% | 1014.7 hPa | 0 mm | - | 0 W/m² | - |
| 1777793664 | 8.33° C | 67% | 1014.5 hPa | 0 mm | - | 0 W/m² | - |
| 1777793361 | 7.78° C | 67% | 1014.6 hPa | 0 mm | - | 0 W/m² | - |
| 1777793059 | 7.78° C | 67% | 1014.5 hPa | 0 mm | - | 0 W/m² | - |
| 1777792756 | 8.33° C | 66% | 1014.7 hPa | 0 mm | - | 0 W/m² | - |
| 1777792453 | 7.78° C | 68% | 1014.6 hPa | 0 mm | - | 0 W/m² | - |
| 1777792149 | 7.78° C | 67% | 1014.4 hPa | 0 mm | - | 0 W/m² | - |
| 1777791846 | 7.78° C | 67% | 1014.4 hPa | 0 mm | - | 0 W/m² | - |
| 1777791544 | 7.78° C | 66% | 1014.6 hPa | 0 mm | - | 0 W/m² | - |
| 1777791241 | 8.33° C | 66% | 1014.5 hPa | 0 mm | - | 0 W/m² | - |
| 1777790939 | 7.78° C | 66% | 1014.7 hPa | 0 mm | - | 0 W/m² | - |
| 1777790636 | 6.67° C | 67% | 1014.7 hPa | 0 mm | - | 0 W/m² | - |
| 1777790333 | 7.22° C | 68% | 1015 hPa | 0 mm | - | 0 W/m² | - |
| 1777790031 | 7.22° C | 67% | 1015.2 hPa | 0 mm | - | 0 W/m² | - |
| 1777789729 | 6.67° C | 69% | 1015.1 hPa | 0 mm | - | 0 W/m² | - |
| 1777789428 | 7.78° C | 66% | 1015.4 hPa | 0 mm | - | 0 W/m² | - |
| 1777789125 | 6.67° C | 68% | 1015.2 hPa | 0 mm | - | 0 W/m² | - |
| 1777788821 | 7.22° C | 66% | 1015.3 hPa | 0 mm | - | 0 W/m² | - |
| 1777788517 | 7.78° C | 66% | 1015.4 hPa | 0 mm | - | 0 W/m² | - |
| 1777788212 | 7.78° C | 65% | 1015.4 hPa | 0 mm | - | 0 W/m² | - |
| 1777787908 | 7.78° C | 65% | 1015.6 hPa | 0 mm | - | 0 W/m² | - |
| 1777787604 | 6.67° C | 67% | 1015.6 hPa | 0 mm | - | 0 W/m² | - |
| 1777787300 | 6.67° C | 68% | 1015.2 hPa | 0 mm | - | 0 W/m² | - |
| 1777786996 | 7.22° C | 67% | 1015.3 hPa | 0 mm | - | 0 W/m² | - |
* Rain latest hour (hover to see other rain measurements)
** Current wind speed in m/s (hover to see current wind gust speed)